(288751) = 2002 EV156 = 2004 RM67

Discovered at Socorro on 2004-09-08 by LINEAR.

Orbit

Orbit type: Main Belt

Note: WebGL enabled browser required.

epoch2023-02-25.0
epoch JD2460000.5
perihelion date2020-04-13.30267
perihelion JD2458952.80267
argument of perihelion (°)336.11493
ascending node (°)355.73284
inclination (°)3.28762
eccentricity0.0956623
perihelion distance (AU)2.7358475
Tisserand w.r.t. Jupiter3.2
ΔV w.r.t. Earth (km/sec)10.4
semimajor axis (AU)3.0252499
mean anomaly (°)196.24464
mean daily motion (°/day)0.18731040
aphelion distance (AU)3.315
period (years)5.26
P-vector [x]0.88174675
P-vector [y]-0.42303621
P-vector [z]-0.20871759
Q-vector [x]0.47170378
Q-vector [y]0.78670630
Q-vector [z]0.39823202
absolute magnitude16.52
phase slope0.15
uncertainty0
referenceMPO 745323
observations used179
oppositions15
arc length (days)8590
first opposition used1999
last opposition used2023
residual rms (arc-secs)0.80
perturbers coarse indicatorM-v
perturbers precise indicator003Ek
first observation date used1999-10-06.0
last observation date used2023-04-13.0
computer nameMPCLINUX
JD of orbit computation2456877.882772
perihelion JD uncertainty (days)1.5446E-04
argument of perihelion uncertainty (°)1.1095E-04
ascending node uncertainty (°)1.0676E-04
inclination uncertainty (°)6.0076E-06
eccentricity uncertainty 6.4786E-08
perihelion distance uncertainty (AU)2.0904E-07
Minimum Orbit Intersection Distances (in AU)
for orbit epoch: 2460000.5, reference: E2023-G82
Mercury2.3249
Venus2.00849
Earth1.72427
Mars1.35391
Jupiter1.99542
Saturn5.86529
Uranus15.1342
Neptune26.9375

Observations

184 total observations over interval: 1999 10 06.25512 – 2023 04 13.375594
These data are available for download (format description).

Date (UT) J2000 RA J2000 Dec Magn Location Ref
1999 10 06.25512 00 43 45.72 +06 15 51.0 20.3   704 – Lincoln Laboratory ETS, New Mexico MPS 118428
1999 10 06.26832 00 43 45.12 +06 15 48.2 19.7   704 – Lincoln Laboratory ETS, New Mexico MPS 118428
1999 10 06.28151 00 43 44.50 +06 15 44.3 20.1   704 – Lincoln Laboratory ETS, New Mexico MPS 118428
2002 02 12.43578 11 39 14.57 +03 09 43.6 22.3 V 691 – Steward Observatory, Kitt Peak-Spacewatch MPS 118428
2002 02 12.45672 11 39 13.83 +03 09 46.7 22.7 V 691 – Steward Observatory, Kitt Peak-Spacewatch MPS 118428
2002 02 12.47846 11 39 13.12 +03 09 50.7 22.4 V 691 – Steward Observatory, Kitt Peak-Spacewatch MPS 118428
2002 03 05.38287 11 25 03.88 +04 26 10.1 21.6 V 691 – Steward Observatory, Kitt Peak-Spacewatch MPS 118428
2002 03 05.40447 11 25 02.85 +04 26 15.1 21.7 V 691 – Steward Observatory, Kitt Peak-Spacewatch MPS 118428
2002 03 05.42609 11 25 01.84 +04 26 20.5 21.9 V 691 – Steward Observatory, Kitt Peak-Spacewatch MPS 118428
2002 03 10.96210 11 20 43.21 +04 49 19.7 21.0 C 209 – Asiago Observatory, Cima Ekar-ADAS MPS 67927
2002 03 10.98307 11 20 42.26 +04 49 24.6 20.8 C 209 – Asiago Observatory, Cima Ekar-ADAS MPS 67927
2002 03 11.00419 11 20 41.26 +04 49 30.4 20.9 C 209 – Asiago Observatory, Cima Ekar-ADAS MPS 67927
2002 03 11.95260 11 19 56.90 +04 53 27.4 21.5 C 209 – Asiago Observatory, Cima Ekar-ADAS MPS 67927
2002 03 11.97409 11 19 55.85 +04 53 32.6 20.1 C 209 – Asiago Observatory, Cima Ekar-ADAS MPS 67927
2002 03 11.99615 11 19 54.79 +04 53 38.0 21.1 C 209 – Asiago Observatory, Cima Ekar-ADAS MPS 67927
2004 09 08.24011 23 07 34.42 -06 39 12.3 20.5   704 – Lincoln Laboratory ETS, New Mexico MPS 112879
2004 09 08.25156 23 07 33.87 -06 39 14.8 19.9   704 – Lincoln Laboratory ETS, New Mexico MPS 112879
2004 09 08.27446 23 07 32.77 -06 39 18.2 20.3   704 – Lincoln Laboratory ETS, New Mexico MPS 112879
2004 09 09.19299 23 06 49.02 -06 42 39.8 20.5   704 – Lincoln Laboratory ETS, New Mexico MPS 112879
2004 09 09.20414 23 06 48.51 -06 42 41.2 20.1   704 – Lincoln Laboratory ETS, New Mexico MPS 112879
2004 09 09.22729 23 06 47.31 -06 42 46.6 20.1   704 – Lincoln Laboratory ETS, New Mexico MPS 112879
2004 09 12.30809 23 04 20.64 -06 53 46.4 20.1 V 691 – Steward Observatory, Kitt Peak-Spacewatch MPS 113073
2004 09 12.33596 23 04 19.28 -06 53 52.1 20.2 V 691 – Steward Observatory, Kitt Peak-Spacewatch MPS 113073
2004 09 12.36437 23 04 17.88 -06 53 58.1 20.1 V 691 – Steward Observatory, Kitt Peak-Spacewatch MPS 113073
2004 10 08.11779 22 47 53.20 -07 58 53.2 20.6 V 691 – Steward Observatory, Kitt Peak-Spacewatch MPS 115789
2004 10 08.13507 22 47 52.76 -07 58 54.5 20.9 V 691 – Steward Observatory, Kitt Peak-Spacewatch MPS 115789
2004 10 08.15202 22 47 52.30 -07 58 55.9 20.6 V 691 – Steward Observatory, Kitt Peak-Spacewatch MPS 115789
2004 10 15.18844 22 45 32.59 -08 03 50.6 20.4 R G96 – Mt. Lemmon Survey MPS 117632
2004 10 15.19368 22 45 32.52 -08 03 50.8 20.4 R G96 – Mt. Lemmon Survey MPS 117632
2004 10 15.19894 22 45 32.42 -08 03 51.4 20.4 R G96 – Mt. Lemmon Survey MPS 117632
2004 10 15.20418 22 45 32.33 -08 03 51.4 20.3 R G96 – Mt. Lemmon Survey MPS 117632
2004 10 15.22424 22 45 32.00 -08 03 51.3 19.6 R G96 – Mt. Lemmon Survey MPS 117632
2004 10 15.23279 22 45 31.84 -08 03 51.0 20.4 R G96 – Mt. Lemmon Survey MPS 117632
2004 10 15.24133 22 45 31.70 -08 03 51.3 20.4 R G96 – Mt. Lemmon Survey MPS 117632
2004 10 15.24996 22 45 31.57 -08 03 51.8 20.4 R G96 – Mt. Lemmon Survey MPS 117632
2005 12 10.23201 05 23 35.62 +28 00 10.5 20.9 V 691 – Steward Observatory, Kitt Peak-Spacewatch MPS 155306
2005 12 10.25299 05 23 34.36 +28 00 09.5 21.0 V 691 – Steward Observatory, Kitt Peak-Spacewatch MPS 155306
2005 12 10.27069 05 23 33.34 +28 00 09.0 20.7 V 691 – Steward Observatory, Kitt Peak-Spacewatch MPS 155306
2008 05 03.32981 14 35 00.34 -18 54 33.9 21.1 V G96 – Mt. Lemmon Survey MPS 248957
2008 05 03.33539 14 35 00.02 -18 54 32.4 20.5 V G96 – Mt. Lemmon Survey MPS 248957
2008 05 03.34098 14 34 59.77 -18 54 31.7 20.6 V G96 – Mt. Lemmon Survey MPS 248957
2008 05 03.34670 14 34 59.44 -18 54 30.6 20.7 V G96 – Mt. Lemmon Survey MPS 248957
2010 11 06.22475 04 01 47.02 +24 59 24.2   691 – Steward Observatory, Kitt Peak-Spacewatch MPS 355304
2010 11 06.24597 04 01 45.95 +24 59 22.6   691 – Steward Observatory, Kitt Peak-Spacewatch MPS 355304
2010 11 06.26370 04 01 44.98 +24 59 21.8   691 – Steward Observatory, Kitt Peak-Spacewatch MPS 355304
2010 11 10.21282 03 58 24.15 +24 53 53.6 20.9 V 691 – Steward Observatory, Kitt Peak-Spacewatch MPS 355304
2010 11 10.23053 03 58 23.15 +24 53 52.0 20.9 V 691 – Steward Observatory, Kitt Peak-Spacewatch MPS 355304
2010 11 10.24828 03 58 22.16 +24 53 50.0 20.7 V 691 – Steward Observatory, Kitt Peak-Spacewatch MPS 355304
2010 12 11.26227 03 31 24.38 +23 37 21.7 20.3 V G96 – Mt. Lemmon Survey MPS 358840
2010 12 11.26911 03 31 24.09 +23 37 20.7 20.8 V G96 – Mt. Lemmon Survey MPS 358840
2010 12 11.27599 03 31 23.77 +23 37 19.4 20.4 V G96 – Mt. Lemmon Survey MPS 358840
2010 12 11.28285 03 31 23.48 +23 37 18.1 20.4 V G96 – Mt. Lemmon Survey MPS 358840
2012 02 13.31454 09 05 43.589 +19 45 26.14 21.8 w F51 – Pan-STARRS 1, Haleakala MPS 412902
2012 02 13.32910 09 05 42.841 +19 45 28.48 21.6 w F51 – Pan-STARRS 1, Haleakala MPS 412902
2012 02 13.34365 09 05 42.082 +19 45 30.48 21.9 w F51 – Pan-STARRS 1, Haleakala MPS 412902
2013 05 01.23883 13 08 26.55 -09 50 00.4 21.6 V G96 – Mt. Lemmon Survey MPS 466751
2013 05 01.24417 13 08 26.34 -09 50 00.1 21.3 V G96 – Mt. Lemmon Survey MPS 466751
2013 05 01.24961 13 08 26.16 -09 49 58.8 21.1 V G96 – Mt. Lemmon Survey MPS 466751
2013 05 01.25501 13 08 25.90 -09 49 57.5 21.3 V G96 – Mt. Lemmon Survey MPS 466751
2013 05 04.34752 13 06 25.549 -09 39 02.04 21.2 w F51 – Pan-STARRS 1, Haleakala MPS 466751
2013 05 04.36385 13 06 24.912 -09 38 58.67 21.2 w F51 – Pan-STARRS 1, Haleakala MPS 466751
2013 05 04.38017 13 06 24.282 -09 38 55.19 20.8 w F51 – Pan-STARRS 1, Haleakala MPS 466751
2014 06 27.47792 19 46 28.296 -25 59 44.49 20.6 w F51 – Pan-STARRS 1, Haleakala MPS 521141
2014 06 27.47859 19 46 28.247 -25 59 44.78 20.6 w F51 – Pan-STARRS 1, Haleakala MPS 521141
2014 06 27.48788 19 46 27.820 -25 59 46.03 20.4 w F51 – Pan-STARRS 1, Haleakala MPS 521141
2014 06 27.48854 19 46 27.785 -25 59 46.00 20.5 w F51 – Pan-STARRS 1, Haleakala MPS 521141
2014 06 27.49783 19 46 27.350 -25 59 47.15 20.4 w F51 – Pan-STARRS 1, Haleakala MPS 521141
2014 06 27.49850 19 46 27.318 -25 59 47.29 20.5 w F51 – Pan-STARRS 1, Haleakala MPS 521141
2014 06 27.50788 19 46 26.884 -25 59 48.43 20.4 w F51 – Pan-STARRS 1, Haleakala MPS 521141
2014 06 27.50854 19 46 26.848 -25 59 48.48 20.4 w F51 – Pan-STARRS 1, Haleakala MPS 521141
2014 07 07.49118 19 38 19.146 -26 19 22.76 20.1 w F51 – Pan-STARRS 1, Haleakala MPS 522716
2014 07 07.51095 19 38 18.087 -26 19 24.73 19.9 w F51 – Pan-STARRS 1, Haleakala MPS 522716
2014 07 07.52083 19 38 17.545 -26 19 25.79 20.3 w F51 – Pan-STARRS 1, Haleakala MPS 522716
2014 07 28.37321 19 20 05.834 -26 42 44.34 20.4 w F51 – Pan-STARRS 1, Haleakala MPS 525236
2014 07 28.38389 19 20 05.288 -26 42 44.49 20.5 w F51 – Pan-STARRS 1, Haleakala MPS 525236
2014 07 28.39458 19 20 04.761 -26 42 44.77 20.3 w F51 – Pan-STARRS 1, Haleakala MPS 525236
2015 09 08.80355 02 41 04.06 +17 54 39.8 20.2 R D29 – Purple Mountain Observatory, XuYi Station MPS 626386
2015 09 08.82030 02 41 04.02 +17 54 40.8 20.1 R D29 – Purple Mountain Observatory, XuYi Station MPS 626386
2015 09 08.83706 02 41 04.08 +17 54 41.1 20.0 R D29 – Purple Mountain Observatory, XuYi Station MPS 626386
2015 11 01.47808 02 11 39.309 +16 46 16.75 20.1 i F51 – Pan-STARRS 1, Haleakala MPS 644779
2015 11 01.49076 02 11 38.633 +16 46 13.90 20.1 i F51 – Pan-STARRS 1, Haleakala MPS 644779
2015 11 01.50343 02 11 37.985 +16 46 11.05 20.0 i F51 – Pan-STARRS 1, Haleakala MPS 644779
2015 11 01.51617 02 11 37.304 +16 46 08.39 20.0 i F51 – Pan-STARRS 1, Haleakala MPS 644779
2015 11 05.26076 02 08 28.88 +16 32 33.8 20.4 r G45 – Space Surveillance Telescope, Atom Site MPS 649853
2015 11 05.26269 02 08 28.84 +16 32 32.9 20.4 r G45 – Space Surveillance Telescope, Atom Site MPS 649853
2015 11 05.26539 02 08 28.70 +16 32 32.7 20.8 r G45 – Space Surveillance Telescope, Atom Site MPS 649853
